This demonstration page uses our WeatherBlox Daily Observations layout. Learn more.

Left ArrowRight Arrow

53.62937, 11.41316

Hourly Observations for December 26, 2019

Temp ( °F °C ) Dew Point ( °F °C ) Humidity (%) Winds ( mph kmh ) Pressure ( in mb ) Visibility ( mi km ) Precip ( " mm )
12:20 am 00:20 Partly Cloudy 39 4 37 3 93 93 W 10 17 30.13 1020 30 48 N/A
1:20 am 01:20 Mostly Clear 39 4 37 3 93 93 W 10 17 30.13 1020 30 48 N/A
2:20 am 02:20 Partly Cloudy 41 5 37 3 87 87 W 10 17 30.13 1020 30 48 N/A
3:20 am 03:20 Mostly Cloudy 41 5 37 3 87 87 W 12 19 30.13 1020 30 48 N/A
4:20 am 04:20 Mostly Cloudy 41 5 37 3 87 87 W 10 17 30.13 1020 30 48 N/A
5:20 am 05:20 Mostly Cloudy with Light Showers 41 5 39 4 93 93 W 8 13 30.13 1020 30 48 N/A
6:20 am 06:20 Mostly Cloudy 41 5 39 4 93 93 W 9 15 30.13 1020 30 48 N/A
6:33 am 06:33 Mostly Cloudy with Light Showers 41 5 39 4 93 93 W 8 13 30.13 1020 30 48 N/A
7:20 am 07:20 Mostly Cloudy with Drizzle 41 5 39 4 93 93 W 8 13 30.13 1020 30 48 N/A
8:07 am 08:07 Mostly Cloudy with Drizzle 41 5 39 4 93 93 WSW 8 13 30.13 1020 4 7 N/A
8:20 am 08:20 Mostly Cloudy with Drizzle 41 5 39 4 93 93 W 9 15 30.13 1020 2 3 N/A
8:28 am 08:28 Mostly Cloudy with Drizzle 41 5 39 4 93 93 W 8 13 30.13 1020 3 5 N/A
9:00 am 09:00 Mostly Cloudy 41 5 39 4 93 93 W 10 17 30.16 1021 5 8 N/A
9:20 am 09:20 Mostly Cloudy 41 5 39 4 93 93 W 10 17 30.16 1021 30 48 N/A
9:49 am 09:49 Mostly Cloudy with Drizzle 41 5 39 4 93 93 W 9 15 30.16 1021 3 5 N/A
10:14 am 10:14 Mostly Cloudy with Drizzle 41 5 39 4 93 93 W 13 20 30.16 1021 30 48 N/A
10:20 am 10:20 Mostly Cloudy with Drizzle 41 5 39 4 93 93 W 13 20 30.16 1021 30 48 N/A
10:50 am 10:50 Mostly Cloudy 43 6 39 4 87 87 W 12 19 30.15 1021 30 48 N/A
11:20 am 11:20 Mostly Cloudy with Drizzle 43 6 39 4 87 87 W 8 13 30.15 1021 30 48 N/A
12:20 pm 12:20 Mostly Cloudy 43 6 39 4 87 87 WNW 10 17 30.15 1021 30 48 N/A
1:20 pm 13:20 Mostly Cloudy 43 6 37 3 81 81 W 9 15 30.15 1021 30 48 N/A
2:20 pm 14:20 Mostly Cloudy with Showers Nearby 43 6 37 3 81 81 W 12 19 30.15 1021 30 48 N/A
3:20 pm 15:20 Mostly Cloudy with Showers Nearby 41 5 39 4 93 93 W 7 11 30.16 1021 30 48 N/A
3:32 pm 15:32 Mostly Cloudy with Showers Nearby 41 5 39 4 93 93 W 7 11 30.16 1021 30 48 N/A
4:03 pm 16:03 Mostly Cloudy 41 5 39 4 93 93 WNW 7 11 30.16 1021 30 48 N/A
4:20 pm 16:20 Mostly Cloudy 41 5 39 4 93 93 W 6 9 30.16 1021 30 48 N/A
5:20 pm 17:20 Mostly Cloudy 41 5 39 4 93 93 W 6 9 30.16 1021 30 48 N/A
6:20 pm 18:20 Mostly Cloudy 41 5 37 3 87 87 W 7 11 30.18 1022 30 48 N/A
6:48 pm 18:48 Mostly Cloudy 41 5 37 3 87 87 WNW 6 9 30.16 1021 30 48 N/A
7:20 pm 19:20 Mostly Cloudy with Drizzle 41 5 37 3 87 87 WNW 6 9 30.18 1022 30 48 N/A
8:20 pm 20:20 Mostly Cloudy 39 4 37 3 93 93 NW 2 4 30.19 1022 30 48 N/A
9:20 pm 21:20 Mostly Cloudy 39 4 37 3 93 93 NW 5 7 30.19 1022 30 48 N/A
10:20 pm 22:20 Mostly Cloudy 39 4 36 2 87 87 N 3 6 30.19 1022 30 48 N/A
11:20 pm 23:20 Mostly Cloudy 37 3 36 2 93 93 WNW 3 6 30.22 1023 30 48 N/A

Powered by AerisWeather